Regional Weather Roundup
Issued by NWS Albany, NY

Home | Current Version | Previous Version | Text Only | Print | Product List | Glossary On
Versions: 1 2 3 4 5 6 7 8 9 10 11 12 13 14 15 16 17 18 19 20 21 22 23 24 25 26 27 28 29 30 31 32 33 34 35 36 37 38 39 40 41 42 43 44 45 46 47 48 49 50
000
ASUS41 KALY 271510
RWRALY

NEW YORK STATE HOURLY WEATHER ROUNDUP
NATIONAL WEATHER SERVICE ALBANY NY
1000 AM EST SAT DEC 27 2014

NOTE: "FAIR" INDICATES FEW OR NO CLOUDS BELOW 12,000 FEET WITH NO
SIGNIFICANT WEATHER AND/OR NO OBSTRUCTIONS TO VISIBILITY.

NYZ032-033-038>043-046>054-057>066-NYZ062>081-271600-
EAST


CITY           SKY/WX    TMP DP  RH WIND       PRES   REMARKS
ALBANY         CLOUDY    36  30  79 CALM      30.24R
GLENS FALLS    CLOUDY    34  29  82 CALM      30.22R
POUGHKEEPSIE   SUNNY     45  31  58 W3        30.25R
NEWBURGH       SUNNY     43  34  70 W5        30.25S
MONTGOMERY     SUNNY     43  33  68 SW7       30.23S
WHITE PLAINS   SUNNY     46  31  55 NW6       30.25R
ISLIP          PTSUNNY   47  34  60 W3        30.26S
NEW YORK CITY  PTSUNNY   48  32  53 NW3       30.26S
CENTRAL PARK   SUNNY     48  30  49 W5        30.29R
$$

NYZ005>009-017-018-044>046-055-056-271600-
CENTRAL


CITY           SKY/WX    TMP DP  RH WIND       PRES   REMARKS
FULTON         CLOUDY    42  33  70 VRB3      30.19R
SYRACUSE       CLOUDY    39  34  82 E3        30.20R
ROME           CLOUDY    37  33  85 SE3       30.22R
ELMIRA         CLOUDY    34  31  88 CALM      30.24R
BINGHAMTON     CLOUDY    39  31  72 S7        30.20R WCI  34
MONTICELLO     MOSUNNY   37  30  75 CALM      30.24R
$$

NYZ026>034-041>043-271600-
NORTH


CITY           SKY/WX    TMP DP  RH WIND       PRES   REMARKS
WATERTOWN      CLOUDY    43  34  70 S5        30.18R
FORT DRUM      NOT AVBL
MASSENA        CLOUDY    39  34  82 S6        30.17S WCI  35
SARANAC LAKE   CLOUDY    36  33  89 SW6       30.12R WCI  31
PLATTSBURGH    CLOUDY    40  33  76 CALM      30.17S
$$

NYZ001>004-010>016-019>021-271600-
WEST


CITY           SKY/WX    TMP DP  RH WIND       PRES   REMARKS
NIAGARA FALLS  PTSUNNY   45  36  70 S13       30.12F
BUFFALO        PTSUNNY   46  36  68 S9        30.13F
DUNKIRK        SUNNY     46  36  68 S10G21    30.15F
JAMESTOWN      MOSUNNY   39  32  75 S7        30.16S WCI  34
WELLSVILLE     CLOUDY    39  31  72 SW9       30.19R WCI  33
ROCHESTER      PTSUNNY   45  35  68 S9        30.16F
PENN YAN       PTSUNNY   44  33  65 S12       30.19R
$$

             KEY
       WCI = WIND CHILL INDEX
       VSB = VISIBILITY
       HX  = HEAT INDEX
$$



USA.gov is the U.S. government's official web portal to all federal, state and local government web resources and services.